RH
11 12 12 12 13 12 12 12 12 12 11 11 11 11 10 10 11 11 12 11 11 11 12 13 13 12 10 9 7 7 6 5 5 5 5 5 6 10 13 14 16 20 20 28 37 36 37 37 38 43 45 52 59 64 69 73 77 78 82 86 83 80 78 75 73 72 68 63 61 57 52 49 44 43 44 43 43 42 44 49 50 48 43 40 42 42 39 40
12 12 12 12 12 12 12 12 12 12 11 11 10 10 10 9 10 10 10 11 11 11 11 12 13 14 13 11 9 8 7 5 5 5 4 4 6 8 12 14 15 18 21 29 35 34 36 35 37 43 46 54 62 66 69 72 78 78 81 85 81 80 79 76 74 72 68 63 61 58 53 48 40 38 39 40 40 40 42 45 48 49 44 42 44 43 39 39
12 12 12 12 12 12 12 12 12 12 12 11 11 10 9 9 9 9 9 10 10 10 11 12 12 13 14 13 11 9 7 6 5 5 5 4 5 7 10 12 14 17 20 28 31 32 34 33 37 44 49 58 64 67 70 72 77 78 81 85 82 79 79 78 76 74 71 65 63 60 54 47 39 37 39 38 38 37 39 41 44 47 43 43 45 43 38 37
11 12 12 12 12 12 12 12 12 12 11 11 11 10 9 8 8 8 8 8 9 10 11 12 12 13 14 14 13 11 8 7 6 7 7 6 5 6 8 10 13 15 20 27 28 29 33 33 38 44 51 62 64 66 69 72 76 78 81 84 81 79 80 80 78 76 71 67 66 61 54 46 37 38 40 38 41 42 39 38 42 45 43 42 43 42 38 37
12 12 12 12 12 12 12 12 12 12 11 11 11 10 9 8 8 7 7 7 7 8 10 11 12 12 13 14 15 13 10 7 7 8 9 7 5 5 6 9 12 14 21 27 26 27 31 34 38 42 53 64 65 64 67 70 73 76 79 82 82 81 82 82 80 77 72 69 68 62 54 45 39 39 38 40 50 50 40 37 41 45 45 42 40 40 38 37
12 12 12 12 12 12 12 12 12 12 11 11 10 10 9 8 7 7 7 7 7 7 9 10 11 12 13 14 14 14 12 9 9 9 9 9 6 4 5 8 11 14 20 27 26 26 29 33 36 43 55 63 64 65 66 67 70 75 78 78 82 83 83 83 81 79 74 71 70 64 54 46 41 39 38 43 50 47 40 38 41 44 46 44 41 40 37 36
12 12 12 12 12 12 12 12 11 11 10 10 10 10 9 8 7 7 6 6 7 7 7 9 10 12 13 14 14 15 14 11 10 9 9 8 7 5 4 7 10 13 20 26 26 25 27 31 35 46 58 63 63 64 63 63 68 75 78 76 80 84 84 85 83 79 76 75 73 67 57 48 43 40 40 44 44 40 38 40 42 44 46 45 43 40 36 35
12 12 12 12 12 12 12 12 11 10 10 10 10 9 8 8 7 7 6 7 7 6 7 8 9 11 13 13 15 16 14 13 11 10 10 8 7 5 4 6 9 13 19 24 25 24 26 28 35 51 63 64 63 62 59 61 67 73 77 77 80 84 84 86 84 80 78 78 76 71 61 53 49 45 43 43 41 39 39 41 43 44 45 45 43 39 36 36
12 12 12 12 12 12 12 12 10 10 10 9 9 9 8 8 7 7 7 7 6 7 7 8 8 11 12 13 16 15 14 14 11 11 12 8 7 6 4 5 8 14 19 23 25 23 24 26 36 55 64 63 60 57 55 60 69 74 76 77 81 84 82 86 86 81 81 80 79 75 65 59 53 48 44 42 40 39 40 42 42 43 46 46 43 40 38 38
12 12 12 12 12 12 12 12 10 9 9 9 8 8 8 8 8 8 8 7 7 7 7 8 8 10 12 14 17 15 13 15 12 14 14 8 6 6 5 5 8 16 19 21 23 23 24 25 38 56 61 60 54 50 52 58 69 75 75 77 82 85 84 87 86 83 83 80 79 78 70 61 54 49 45 41 40 40 41 42 42 43 46 46 44 41 39 39
12 12 12 12 13 12 12 12 10 9 8 8 8 8 8 8 9 9 8 8 8 8 8 8 9 10 12 14 17 15 13 17 15 15 15 9 6 6 6 6 10 16 17 20 22 22 24 25 40 55 57 56 50 45 48 52 65 74 74 76 79 83 86 88 87 85 84 80 79 79 74 62 55 52 44 38 38 40 42 42 42 43 45 46 45 42 41 40
12 13 12 13 13 13 12 12 10 9 8 8 8 8 9 9 9 10 9 9 8 9 9 9 10 10 12 15 17 15 14 18 18 16 15 11 10 10 8 7 12 16 16 20 21 21 24 27 43 55 53 50 46 46 49 51 64 74 74 77 78 80 85 89 88 86 85 82 79 79 78 66 59 55 42 37 38 39 42 42 41 44 46 46 45 44 42 41
12 13 13 13 13 13 12 12 11 9 8 8 9 9 10 10 11 11 11 10 9 9 9 11 12 11 13 15 15 13 15 18 18 16 14 13 11 11 9 9 13 15 16 19 20 22 23 30 48 56 50 47 45 49 55 58 66 75 75 77 80 82 88 90 88 88 85 83 80 78 80 72 64 57 43 37 37 37 41 42 41 43 46 46 45 45 42 42
12 13 13 13 13 12 12 12 11 9 8 9 10 11 12 12 13 12 12 12 12 11 11 12 13 14 15 15 13 12 14 17 19 16 15 16 11 8 9 11 14 15 16 17 19 22 22 32 50 53 48 46 45 49 57 62 68 76 76 74 77 84 89 87 87 91 86 83 82 80 82 77 68 59 46 38 36 37 40 41 40 41 44 45 44 45 43 43
12 13 13 13 12 12 11 12 12 10 10 11 11 13 14 15 14 14 15 15 15 14 14 14 15 18 18 15 13 13 14 18 20 17 18 21 14 10 12 13 14 14 16 16 17 21 22 35 49 48 46 45 45 52 61 66 68 74 76 74 75 82 89 87 85 89 87 85 84 82 84 80 71 62 50 41 37 38 39 39 39 38 42 44 44 45 45 45
12 12 13 13 12 12 11 12 12 11 13 13 12 14 14 15 15 15 17 16 17 17 17 18 17 19 19 15 13 14 15 19 21 19 22 24 17 11 12 12 13 15 15 14 16 19 23 38 47 45 47 45 43 53 65 68 68 72 75 76 75 78 88 90 86 86 86 86 84 83 88 84 74 66 57 46 40 39 39 39 38 38 41 42 44 45 45 45
12 12 12 12 11 12 11 12 13 13 15 14 13 14 14 16 15 16 19 18 18 17 18 20 18 19 18 15 15 15 16 19 22 22 24 25 19 12 11 11 11 14 15 13 14 16 24 39 45 44 47 44 40 50 64 68 67 68 70 75 77 76 83 88 88 86 85 87 84 83 89 85 76 70 63 52 44 41 39 39 38 40 42 41 43 45 44 44
12 12 12 11 11 12 12 13 14 15 15 14 14 15 14 14 14 16 19 19 19 19 21 20 18 19 17 15 18 17 16 21 24 25 25 25 22 15 12 10 10 13 14 14 12 13 25 39 43 44 45 42 40 48 63 67 66 66 66 74 79 76 77 83 88 88 87 90 87 82 87 86 78 73 69 58 49 45 41 40 40 42 42 41 43 44 43 43
11 11 11 11 11 12 13 14 15 16 15 14 15 15 14 14 15 17 17 17 19 22 24 20 17 21 19 16 18 17 17 22 25 27 26 26 24 18 14 12 10 12 14 14 12 14 27 38 41 42 41 39 38 48 62 64 65 66 65 73 79 78 79 81 84 86 88 91 89 85 87 87 79 74 72 62 51 46 43 41 40 42 42 41 44 44 43 43
10 11 11 11 11 12 14 14 15 15 14 14 14 15 18 18 20 22 19 17 17 17 21 18 15 20 22 18 17 17 20 23 25 28 27 26 24 20 17 14 10 11 13 15 13 17 30 37 39 39 37 36 36 47 59 56 56 60 64 70 74 80 86 83 82 86 88 91 91 88 86 84 80 75 74 65 51 45 43 42 41 41 40 41 45 44 42 43
10 10 10 11 12 12 14 14 14 13 13 14 15 17 21 20 20 21 19 18 16 14 17 16 14 17 20 19 17 19 24 26 27 27 25 24 23 21 19 16 12 11 13 15 15 21 31 35 36 37 36 35 35 44 51 48 49 54 62 67 69 80 89 83 81 86 89 89 89 87 84 84 82 76 75 67 52 43 41 42 42 41 40 41 43 42 42 43
9 9 10 11 12 13 15 15 13 12 13 14 16 20 21 20 20 19 18 18 15 13 14 13 14 16 18 19 19 22 27 27 27 26 22 21 21 21 21 18 14 11 13 16 16 23 32 32 33 35 33 32 33 40 45 44 47 53 60 65 68 78 85 81 79 86 92 89 87 88 87 89 85 78 76 70 56 45 41 42 42 41 40 40 39 40 42 43
9 9 10 11 13 14 15 15 13 13 15 17 19 21 21 20 21 20 18 19 17 14 14 15 16 18 20 23 24 25 28 26 24 23 20 19 19 19 21 19 15 12 13 17 16 22 30 30 34 36 32 31 33 38 42 42 45 54 59 62 70 77 79 79 81 86 89 86 87 90 88 90 89 83 81 75 64 52 44 41 41 41 40 40 39 39 42 43
9 9 10 12 13 15 15 14 13 15 17 20 21 21 22 21 20 21 20 19 19 17 19 19 18 19 22 24 26 26 28 26 23 21 18 18 18 17 19 19 16 13 14 16 15 21 28 30 40 39 30 31 32 33 40 41 42 50 53 56 67 74 74 77 81 84 86 85 87 91 91 91 90 86 84 81 72 60 49 43 41 41 40 40 38 38 40 42
9 9 10 11 14 15 14 13 15 18 20 21 22 22 22 21 21 23 22 23 24 21 22 22 21 23 22 24 27 28 28 27 25 22 19 19 18 17 19 19 17 14 13 15 14 23 31 30 37 37 29 29 30 31 36 38 39 44 47 48 58 67 70 75 80 82 86 88 87 88 93 94 89 86 86 85 79 67 55 46 42 40 39 40 38 36 37 40
9 9 10 12 14 15 14 16 19 21 23 25 26 24 22 22 23 24 26 29 27 23 25 27 27 27 25 26 27 25 29 29 28 25 21 21 21 20 20 19 20 17 15 15 16 26 33 28 28 32 29 27 28 30 33 35 36 39 42 46 54 65 71 76 80 81 83 85 84 84 90 94 91 88 87 87 85 76 63 52 44 41 40 40 39 35 35 37
9 9 10 12 14 15 17 19 20 22 26 29 29 26 23 23 26 28 31 33 30 26 26 26 27 28 27 28 25 25 33 31 27 28 25 24 24 22 20 20 23 24 20 19 22 29 30 24 24 27 28 27 28 31 33 35 36 36 39 45 55 67 74 76 78 80 82 82 83 84 87 94 94 88 85 85 87 83 71 57 48 43 40 39 38 36 35 35
9 9 10 12 15 18 19 20 22 24 28 31 30 28 24 23 28 33 36 39 35 28 25 25 29 31 29 29 25 29 39 33 28 29 27 26 26 23 24 23 24 26 23 21 26 29 25 21 22 23 25 26 29 32 33 36 36 36 40 46 54 63 71 76 79 83 84 82 85 85 84 91 93 88 87 88 87 86 77 62 52 45 40 37 37 37 35 34
9 9 10 12 18 20 20 21 24 26 28 30 30 30 26 26 31 34 37 40 33 25 29 31 32 32 32 30 27 30 35 33 34 34 27 27 28 25 28 27 26 29 25 21 26 29 25 22 21 21 23 27 30 31 31 35 36 38 45 50 55 58 63 72 78 82 81 78 82 84 81 85 90 91 92 92 90 87 81 67 55 47 42 38 36 36 35 34
9 9 10 14 20 21 20 23 25 26 28 30 31 30 29 30 36 37 35 35 28 25 33 36 33 33 33 32 30 30 32 32 37 37 27 26 27 26 29 29 28 30 25 23 30 32 25 22 22 20 22 28 29 28 30 34 36 41 48 51 54 57 60 66 72 77 79 76 74 78 79 78 83 88 90 91 87 83 82 73 61 51 44 39 36 35 34 32
9 9 10 16 21 21 22 24 24 26 27 29 31 32 32 33 35 37 33 29 27 26 30 34 34 33 34 34 32 32 32 32 35 35 28 27 27 25 27 27 25 28 27 25 29 31 24 20 21 20 21 24 23 24 29 32 35 42 47 50 51 53 55 57 63 71 77 77 71 71 76 76 78 82 83 84 81 78 80 76 65 55 47 41 36 34 34 31
9 9 11 17 21 22 23 23 24 26 26 28 31 32 37 37 33 34 33 30 30 26 27 34 34 31 32 35 34 32 31 31 33 34 31 31 31 28 28 29 26 27 28 24 25 26 22 19 19 18 19 20 20 23 28 31 36 39 44 50 50 50 54 54 58 65 70 74 70 68 74 75 75 76 77 81 82 79 79 76 70 59 49 44 39 36 35 32
9 9 12 18 22 22 22 22 24 25 25 27 29 30 35 37 34 34 33 31 31 27 27 33 32 29 31 34 34 31 30 31 33 35 33 32 33 31 30 31 29 28 28 25 24 25 22 19 18 16 17 17 18 22 26 31 36 37 41 48 46 47 53 54 55 58 63 69 68 67 73 73 70 71 73 78 80 79 80 79 75 65 51 45 42 38 36 34
9 10 14 19 22 22 21 22 24 24 24 27 29 30 32 35 34 34 34 32 31 29 28 31 31 30 31 31 32 30 29 32 33 34 35 32 32 32 30 28 27 28 29 26 24 24 21 19 17 16 16 16 16 19 23 31 35 35 38 43 43 42 46 51 53 52 59 70 69 67 69 67 68 71 70 71 74 74 77 80 79 73 60 49 45 42 39 37
10 11 16 20 23 22 21 22 23 24 24 27 29 30 31 34 34 33 34 32 30 30 28 30 32 33 33 32 32 30 29 33 34 33 34 33 32 32 32 30 27 28 29 27 25 22 20 21 18 16 16 15 15 15 19 28 35 35 35 39 41 38 39 46 50 49 58 71 71 64 62 61 65 69 67 68 71 73 76 80 82 82 72 59 51 47 45 42
11 13 17 21 24 22 20 22 24 23 24 26 29 30 31 32 31 31 33 31 30 30 29 30 33 35 36 35 35 34 31 34 36 33 32 33 33 33 32 31 29 27 26 27 28 23 19 20 18 16 16 15 14 14 15 22 30 33 34 37 39 34 33 38 42 44 49 58 63 60 58 59 60 64 65 66 70 74 75 78 81 83 81 70 57 51 50 48
12 14 19 22 24 23 20 21 23 23 24 26 28 30 29 29 29 29 30 30 30 29 28 32 34 35 36 35 36 37 35 35 36 34 34 33 32 32 30 30 31 28 26 27 29 26 21 20 19 16 15 14 15 16 13 15 24 31 33 35 37 36 34 33 38 44 45 47 57 58 54 55 58 64 67 64 67 72 73 75 78 80 83 77 63 54 52 52
12 15 20 23 24 24 21 19 21 23 25 27 27 28 28 28 29 28 28 30 31 29 28 32 34 34 35 34 35 37 37 38 37 33 34 32 29 30 28 29 31 29 27 26 26 26 21 21 21 16 14 14 15 16 16 14 17 27 34 35 37 39 36 32 35 43 46 46 51 55 53 50 52 60 65 63 65 69 72 74 75 76 79 78 70 60 54 54
12 15 22 24 24 24 22 19 20 24 26 27 27 26 25 26 27 27 28 29 31 31 28 30 31 32 35 34 35 37 36 38 38 34 35 33 30 30 27 27 28 27 28 26 25 26 21 21 25 19 15 16 15 15 18 18 15 21 31 35 36 38 36 33 30 35 44 44 46 54 54 50 49 53 59 62 64 66 70 72 72 74 77 76 73 66 58 56
14 18 23 24 24 24 23 20 22 26 27 25 25 24 23 23 24 26 28 29 32 33 30 30 32 32 35 34 35 38 37 37 37 36 37 35 32 31 29 27 26 26 28 26 26 27 22 23 28 25 17 16 17 15 17 21 19 16 22 30 35 36 35 35 32 32 39 41 44 49 49 51 53 51 54 59 62 64 67 68 69 74 77 77 75 70 64 60
15 21 24 23 24 25 24 24 24 26 27 25 24 23 22 22 22 23 27 29 31 33 31 31 34 34 35 34 35 38 38 37 37 37 37 36 34 33 31 29 28 27 28 27 28 29 25 24 28 28 21 16 17 17 16 20 21 17 16 22 30 34 33 36 37 35 34 36 41 43 44 52 55 50 51 56 59 64 67 67 68 72 76 77 75 72 70 68
18 25 26 23 25 26 27 28 26 25 27 26 24 23 22 21 20 21 26 29 31 34 33 33 35 34 34 34 36 38 38 38 38 37 37 36 35 35 33 32 31 29 29 29 29 29 28 26 27 28 25 21 20 19 18 19 20 19 17 17 25 31 31 34 36 36 34 35 39 39 42 52 54 50 53 56 59 66 66 65 68 71 75 77 76 74 75 75
23 27 26 24 24 26 28 30 26 25 26 24 23 22 21 21 21 21 24 28 32 34 34 34 35 34 34 35 37 38 38 38 38 37 37 36 35 35 35 35 33 31 30 30 30 29 29 29 28 27 28 26 23 21 19 18 18 19 19 17 21 27 29 31 33 36 37 37 38 36 38 49 53 50 53 56 59 65 65 65 69 71 74 77 78 77 75 77
24 25 25 25 25 26 30 31 28 27 26 24 22 21 20 20 20 21 22 26 32 34 33 34 34 34 35 35 35 37 37 37 37 37 37 37 37 36 35 34 34 32 30 30 31 31 31 32 30 28 28 26 22 22 22 20 18 19 19 18 20 23 27 30 33 37 39 37 37 36 38 49 51 46 50 56 58 62 65 67 70 73 73 74 77 79 77 77
22 22 23 24 25 27 30 29 26 26 25 23 22 21 20 20 19 19 20 23 28 32 33 34 34 34 34 34 33 35 36 36 36 37 38 38 38 37 35 35 34 32 32 33 34 32 33 34 32 33 34 30 25 24 24 23 20 20 21 21 21 21 24 30 33 36 39 38 39 38 39 48 50 44 48 54 56 61 65 66 69 72 73 72 75 79 79 77
24 24 24 24 25 27 30 28 25 25 25 23 22 20 20 21 20 18 19 22 27 29 31 33 34 34 35 35 34 34 35 35 35 38 39 38 38 37 36 35 34 33 34 35 34 32 34 35 33 34 36 37 35 30 25 25 24 22 23 23 21 19 21 26 30 32 36 39 42 41 40 47 50 43 46 52 54 58 64 66 69 70 71 72 73 77 80 79
24 26 27 27 28 28 30 30 26 25 25 24 24 21 20 21 22 19 18 21 24 26 29 31 31 34 37 37 37 37 36 35 35 37 38 38 38 37 35 35 34 33 35 35 35 34 33 34 33 31 31 35 37 31 25 26 26 24 23 23 23 21 19 23 27 30 34 37 41 43 40 42 45 41 41 47 49 54 60 64 67 70 71 73 74 77 80 80
26 28 28 30 32 31 33 35 31 27 25 24 23 21 21 23 23 22 19 18 20 23 27 31 30 31 34 36 38 40 40 38 37 37 37 36 36 36 36 36 34 33 34 35 37 35 33 34 34 31 29 30 33 31 28 29 30 27 26 26 26 23 21 23 25 27 34 39 44 47 41 37 39 39 38 41 44 49 57 61 64 68 71 72 75 76 78 79
28 28 27 29 33 35 37 38 32 27 25 24 22 21 22 24 23 21 19 18 18 18 22 29 30 28 29 32 36 38 40 40 40 39 37 36 35 35 36 36 35 33 33 35 38 37 35 36 36 34 32 30 31 32 32 34 34 33 33 33 32 29 26 27 28 29 35 42 45 45 44 41 38 35 35 37 39 44 53 60 62 65 68 70 72 74 76 79
31 32 30 31 32 35 37 35 30 28 26 25 24 22 22 24 23 19 19 19 19 18 19 24 26 26 27 30 33 35 36 37 38 37 37 39 38 36 36 36 36 35 33 34 38 38 36 37 39 38 35 32 32 33 34 36 36 36 38 37 35 36 34 32 34 34 36 43 44 41 43 45 38 32 34 37 39 42 49 57 62 63 65 68 69 72 75 78
30 32 32 33 34 36 37 34 30 29 27 26 26 24 22 23 22 19 19 18 18 19 19 21 22 23 24 27 30 33 34 35 37 37 37 39 39 37 36 36 35 36 35 33 35 37 39 41 40 38 37 35 35 35 37 38 38 40 43 42 40 43 43 40 40 38 36 42 43 37 39 43 38 33 35 37 39 43 47 54 63 65 64 64 66 69 73 75
29 32 32 34 36 37 36 34 30 29 29 28 27 25 24 24 21 20 22 21 18 18 19 19 20 22 24 25 27 29 32 35 38 40 41 41 39 37 36 35 34 35 35 34 34 35 38 41 40 38 39 39 37 37 38 38 39 42 47 48 48 48 48 46 46 43 38 42 45 42 43 47 41 35 36 38 39 43 47 53 61 64 64 63 63 65 71 75